Dewpoint
49 51 53 56 55 57 58 61 61 62 60 58 56 52 50 50 49 46 46 46 44 42 44 42 43 43 42 43 43 42 41 33 34 31 33 33 35 37 32 32 35 38 36
48 52 55 57 57 58 59 61 60 60 57 54 51 50 50 50 45 44 45 43 44 42 41 44 43 43 41 42 41 40 37 34 34 32 31 29 27 28 31 31 32 37 31
48 52 55 56 57 58 59 58 57 55 52 51 51 51 50 46 43 43 41 43 44 42 42 43 43 43 41 36 39 38 39 34 34 35 30 27 25 27 27 30 28 36 30
48 52 54 55 55 55 55 53 51 49 50 48 45 45 44 43 44 42 42 42 43 43 40 39 40 41 39 38 37 34 37 37 32 32 29 32 30 26 25 23 23 25 24
50 49 48 48 48 50 50 49 46 44 45 46 47 45 44 42 41 42 41 41 37 33 29 29 32 35 38 39 40 40 38 35 34 32 30 29 26 26 21 19 19 19 20
45 43 43 44 44 46 47 47 44 44 45 46 46 46 43 40 37 33 28 26 25 25 27 27 32 34 36 39 38 38 38 39 37 31 29 26 23 20 20 19 21 21 20
41 39 39 39 43 45 46 45 43 42 44 43 41 39 34 32 28 27 25 26 25 25 28 32 34 34 35 37 37 40 39 39 34 32 29 25 24 24 22 20 20 19 18
39 38 39 41 43 45 44 42 42 41 39 35 32 31 28 29 26 27 28 26 26 27 30 31 35 37 36 40 40 40 41 38 33 31 30 27 26 24 22 21 20 23 20
38 39 40 41 43 43 43 44 40 35 32 32 32 32 34 31 30 30 30 27 29 25 29 32 34 35 39 39 40 40 37 36 32 30 29 26 24 24 22 21 21 24 25
38 39 41 42 42 42 43 41 36 32 33 31 32 32 31 30 31 31 30 29 30 30 30 30 31 33 39 39 39 35 32 31 30 25 27 27 27 26 24 21 23 22 24
39 40 41 41 41 42 40 37 33 34 31 30 30 32 30 30 30 30 30 29 31 30 29 30 30 31 32 33 34 32 32 33 28 26 28 27 27 26 25 25 23 22 22
39 41 41 41 41 40 36 34 35 32 30 29 30 30 31 29 29 29 29 30 30 30 29 30 30 29 29 32 31 31 30 29 26 27 28 26 22 26 26 22 21 21 20
39 41 41 40 40 37 35 33 33 31 29 28 26 27 28 29 29 29 30 30 29 29 30 30 29 29 30 30 33 32 27 25 27 28 27 28 26 24 21 21 21 19 16
40 41 40 39 39 37 34 32 34 33 32 23 23 24 27 29 29 29 30 30 29 29 30 30 29 29 27 26 25 24 25 26 27 30 27 24 22 21 21 18 19 18 19
40 41 39 38 37 35 33 32 35 36 28 24 23 26 28 29 28 28 29 29 30 28 28 28 30 32 27 23 28 27 27 27 26 25 21 20 20 19 19 17 19 18 17
38 39 38 36 35 33 31 32 35 32 28 27 26 26 27 27 27 28 30 29 29 27 27 27 28 32 28 31 28 24 24 23 22 21 19 19 23 21 22 22 21 20 18
37 38 37 37 35 34 32 33 31 29 27 26 25 25 26 25 26 25 24 25 28 28 28 27 27 31 31 29 24 23 21 23 22 20 18 16 12 19 18 21 22 22 24
36 37 37 37 37 34 30 32 29 26 26 24 23 25 23 21 22 23 23 26 28 28 27 26 28 28 27 25 22 21 23 24 22 20 19 18 17 18 19 17 17 15 15
37 37 38 38 37 33 30 28 26 23 22 24 23 17 20 22 22 22 24 27 28 28 27 26 25 25 26 24 21 20 24 24 22 21 19 17 15 21 20 18 17 14 14
37 37 38 38 36 32 28 26 23 28 23 21 18 20 20 20 21 23 26 27 28 27 25 24 25 24 27 23 21 20 25 25 24 21 20 18 17 19 18 19 18 18 15
37 39 39 36 33 27 25 29 25 24 18 20 22 20 20 22 25 26 26 27 28 28 30 28 28 28 27 27 22 20 23 25 23 21 20 20 20 18 18 19 18 19 16
37 37 34 29 26 27 29 27 24 20 23 23 23 22 24 25 25 28 28 28 28 29 29 33 30 30 28 24 23 21 21 21 24 23 22 24 21 18 18 18 15 17 18
33 29 25 26 30 30 26 22 24 24 23 24 25 25 26 27 27 28 28 28 27 28 28 29 31 28 31 32 25 24 21 22 24 25 24 21 21 18 18 15 16 19 19
23 23 30 31 29 31 28 23 26 27 26 26 27 28 28 27 27 27 28 28 28 28 28 29 27 27 26 26 28 26 26 24 25 26 25 23 23 22 21 21 19 18 18
32 33 33 32 29 25 24 26 27 27 27 28 28 28 31 30 27 26 27 29 30 30 29 30 29 35 32 28 28 28 28 29 26 24 25 23 23 20 20 19 19 19 18
34 34 32 28 24 26 26 27 28 28 29 30 30 30 30 30 28 28 28 30 31 31 28 27 30 36 30 28 26 26 24 22 23 23 23 24 26 24 21 20 19 19 18
Lifted_Index
-4 -4 -5 -5 -5 -5 -5 -5 -4 -4 -3 -2 -1 1 2 2 3 4 5 5 5 6 5 5 5 5 5 5 6 6 7 8 8 9 9 9 9 8 8 8 8 8 9
-4 -4 -5 -5 -5 -5 -5 -4 -4 -3 -3 -1 -0 1 2 3 4 5 5 6 6 6 6 5 5 5 5 6 7 7 8 8 9 9 9 9 9 9 9 9 9 9 9
-4 -5 -5 -5 -5 -5 -4 -3 -3 -2 -1 0 1 2 3 4 4 5 6 6 6 6 6 6 6 6 7 7 8 8 8 9 9 10 10 10 10 10 10 10 10 10 10
-4 -4 -4 -4 -3 -3 -2 -1 0 1 2 2 3 3 4 4 5 6 6 7 7 7 8 8 8 8 8 8 8 9 9 10 10 10 10 11 11 11 11 12 11 11 11
-3 -3 -2 -1 -1 0 1 2 3 4 4 4 4 4 5 6 6 7 8 8 9 10 10 10 10 9 9 8 9 9 10 10 10 11 11 11 12 12 12 12 12 11 11
-1 -0 1 1 2 3 3 4 5 5 5 5 6 6 7 8 9 9 10 11 11 12 12 12 11 10 9 9 9 10 10 10 11 11 11 12 12 12 12 11 10 9 9
1 2 2 3 3 4 4 5 5 6 6 7 7 8 9 9 10 11 12 12 12 12 12 12 11 10 10 9 10 10 10 10 11 11 12 12 11 11 10 9 8 7 6
2 3 3 4 4 4 5 5 6 7 7 8 8 8 9 10 11 12 12 12 13 12 12 12 11 10 10 10 10 10 10 10 11 11 11 11 10 9 8 7 6 5 5
3 3 3 4 4 5 5 6 7 8 8 8 8 8 9 11 11 12 12 12 13 13 12 12 11 10 9 9 10 10 10 10 11 11 10 9 8 7 6 5 5 5 5
3 3 3 4 4 5 6 7 8 9 8 7 8 10 11 12 12 12 12 12 12 12 12 11 11 10 10 9 10 10 10 10 10 9 8 7 6 5 5 5 4 5 5
2 2 3 4 5 5 6 7 8 9 8 7 8 11 11 11 11 12 12 12 12 12 12 11 11 11 10 10 10 10 10 9 9 8 7 6 5 4 4 4 5 5 5
1 2 3 4 5 6 7 8 8 8 7 8 9 11 11 11 11 11 11 12 12 12 12 11 11 11 11 10 10 10 10 8 7 6 5 5 5 4 5 5 6 6 6
1 1 2 4 4 6 7 8 8 7 7 9 10 11 11 11 11 11 11 11 11 12 11 11 11 11 11 11 11 10 9 8 6 5 5 5 5 5 6 7 7 7 8
1 1 2 4 4 6 7 7 7 7 8 10 11 11 11 11 11 11 11 11 11 11 11 11 11 11 11 11 11 10 8 7 6 5 5 5 6 7 8 8 9 9 9
1 1 2 4 5 6 7 7 7 7 9 10 10 11 10 11 11 11 11 11 11 11 11 11 11 11 11 11 11 10 8 7 6 6 6 7 7 8 9 9 10 10 10
1 2 3 3 4 5 6 7 7 8 9 10 10 10 10 11 11 11 11 11 11 11 11 10 10 11 11 11 11 9 8 7 6 6 7 8 8 9 9 10 10 11 11
2 2 2 3 4 5 6 7 8 9 10 10 10 10 11 11 11 12 11 11 11 11 11 11 10 10 10 10 10 9 7 7 7 7 8 8 9 9 10 11 11 11 11
2 2 2 3 3 5 6 7 8 9 10 10 11 11 12 12 12 12 12 11 11 11 11 11 10 10 10 10 9 8 7 7 7 8 8 9 9 10 11 11 11 11 11
2 2 2 2 3 5 7 8 9 9 10 10 11 12 12 13 13 12 12 11 11 11 11 11 10 10 10 9 8 7 7 7 7 8 8 9 10 11 12 12 11 11 11
2 2 2 2 4 6 7 8 9 10 10 11 11 12 13 13 13 12 12 11 11 10 11 11 10 10 9 9 8 7 7 7 8 8 9 10 11 12 12 12 11 11 11
2 2 2 4 5 7 8 9 10 11 11 12 12 13 13 13 13 12 11 11 10 10 10 10 10 9 9 8 8 7 7 8 8 9 9 10 11 12 12 12 12 12 12
2 3 4 6 8 9 9 9 10 12 12 13 13 13 13 12 12 12 11 11 10 9 9 9 9 8 8 8 7 7 7 8 8 9 9 10 11 11 11 12 12 12 12
4 5 6 8 9 10 10 11 12 12 13 14 14 13 12 12 12 11 11 10 9 8 8 8 8 7 7 7 7 7 7 8 8 9 9 10 10 11 11 11 11 11 11
7 7 8 8 9 10 11 12 13 13 13 14 14 13 12 12 12 11 10 9 8 7 7 7 7 7 6 6 6 6 7 7 8 9 9 9 10 10 10 10 10 10 11
8 9 9 9 10 11 12 13 13 13 14 14 13 12 12 11 11 10 9 8 8 7 7 7 6 6 5 5 6 6 7 7 8 8 9 9 9 9 9 10 10 10 10
9 9 9 10 11 12 12 12 13 13 14 13 13 12 12 11 10 9 8 8 7 7 7 7 6 6 5 5 6 6 7 7 8 8 9 8 8 9 9 9 10 10 10